Terminal Aerodrome Forecast
Issued by NWS Columbia, SC

Home | Current Version | Previous Version | Text Only | Print | Product List | Glossary On
Versions: 1 2 3 4 5 6 7 8 9 10 11 12 13 14 15 16 17 18 19 20 21 22 23 24 25 26 27 28 29 30 31 32 33 34 35 36 37 38 39 40 41 42 43 44 45 46 47 48 49 50
000
FTUS42 KCAE 060736 AAB
TAFAGS
TAF AMD
KAGS 060736Z 0608/0706 VRB05KT P6SM SCT003 BKN150
      TEMPO 0609/0612 2SM BR OVC008
     FM061400 24008KT P6SM FEW050 SCT150
     FM062000 23008KT P6SM VCSH BKN045 BKN120
     FM070100 22003KT P6SM SCT060 SCT250=

USA.gov is the U.S. government's official web portal to all federal, state and local government web resources and services.